RH
92 94 93 93 92 91 93 95 93 92 92 92 92 91 88 85 86 90 93 90 89 88 86 87 88 86 80 82 83 85 85 82 84 76 82 78 80 77 74 73 71 72 69
93 94 94 94 94 94 93 92 93 94 90 90 90 92 90 91 91 92 90 88 90 89 85 88 85 80 89 87 84 88 85 86 83 86 81 85 80 78 80 80 72 60 71
94 95 97 97 97 97 95 94 94 94 92 88 88 90 89 92 92 91 92 92 90 89 87 89 88 88 91 93 88 84 80 80 86 85 82 85 79 77 79 80 79 81 67
96 96 98 98 96 92 93 96 94 96 96 94 93 93 92 91 90 90 92 94 94 90 89 88 87 88 91 91 87 90 86 92 89 88 84 82 84 83 84 86 86 82 78
97 96 96 96 95 96 98 97 96 96 96 96 97 97 95 93 90 89 89 89 90 91 89 90 94 95 95 95 93 92 93 95 96 88 85 88 84 84 92 89 93 85 79
97 96 96 96 95 98 99 99 98 98 98 97 97 96 94 92 82 81 82 88 88 93 92 92 96 91 88 88 97 98 97 96 94 95 97 95 94 95 88 84 89 88 85
97 98 99 99 98 99 98 99 99 99 98 99 98 93 78 72 83 83 82 79 87 97 97 98 89 81 86 89 92 90 89 93 95 95 95 93 87 89 86 86 88 89 87
99 99 98 98 98 98 97 96 96 97 99 98 88 74 68 70 85 93 90 86 94 95 96 96 91 88 91 84 89 87 75 75 78 66 81 84 82 85 88 83 89 92 89
99 99 99 98 98 98 98 98 99 99 93 92 76 73 71 72 84 97 95 98 93 88 84 78 81 72 76 79 73 79 68 72 76 83 83 82 80 81 82 68 68 76 80
99 99 99 98 98 99 99 99 99 94 94 75 69 68 64 70 84 85 86 74 74 71 80 79 75 78 79 78 66 69 70 72 66 66 63 65 70 69 76 81 79 86 92
99 99 99 99 99 99 99 99 99 97 86 80 72 65 69 71 74 85 81 77 79 80 72 68 58 82 89 78 76 69 72 74 70 63 58 55 57 58 57 60 66 69 72
98 98 99 99 99 99 98 99 99 98 96 94 73 62 59 61 76 80 80 82 70 68 69 62 61 90 91 84 82 90 84 74 59 56 56 58 57 56 60 59 67 64 60
97 98 99 99 98 96 91 90 93 89 86 79 71 69 63 59 55 68 71 67 68 61 58 67 80 84 84 78 81 79 76 66 58 57 59 62 60 59 61 61 63 67 66
80 86 89 94 93 85 90 79 96 81 86 90 93 85 69 72 65 55 50 52 61 63 73 76 78 76 78 72 70 70 65 64 61 62 62 61 57 53 54 57 55 58 52
78 75 71 63 65 66 69 73 60 63 68 65 66 80 78 72 66 65 59 55 58 70 80 71 66 68 64 64 65 64 64 64 63 63 61 58 58 56 57 56 57 58 59
81 81 82 74 68 68 66 62 70 71 77 77 78 78 65 74 71 70 76 81 84 82 72 67 70 64 61 63 63 68 66 67 65 62 62 59 58 57 59 60 59 60 63
84 84 84 82 76 71 68 65 64 65 68 71 70 72 73 73 71 74 80 82 81 77 68 66 65 63 63 64 63 61 63 64 69 61 61 60 59 61 61 64 64 61 63
82 90 78 77 79 79 75 72 66 64 63 59 63 65 71 74 74 78 82 81 62 71 70 66 66 66 66 66 64 63 63 62 60 61 61 61 61 61 63 66 65 65 64
83 81 79 73 77 79 76 77 77 75 69 64 58 62 69 82 79 82 83 64 63 67 69 66 66 64 65 64 65 66 65 62 61 61 63 64 64 64 68 65 63 71 67
83 82 81 78 75 73 67 64 70 78 77 71 65 57 52 62 57 60 69 74 66 66 66 65 66 66 66 68 69 67 66 64 64 62 65 66 68 66 65 65 64 64 67
95 91 82 82 76 70 67 63 62 62 68 69 65 66 70 54 53 56 64 69 68 66 68 66 68 67 68 68 68 66 61 61 63 64 66 68 68 66 67 67 67 68 70
94 93 93 90 87 81 74 69 65 61 59 59 56 65 80 52 52 57 65 65 65 66 63 68 65 62 63 66 67 62 61 62 64 65 68 68 67 67 67 68 68 68 67
91 90 93 91 86 88 82 76 70 65 62 58 56 57 65 58 53 58 63 62 65 66 66 66 66 62 64 64 62 62 59 60 60 63 66 68 68 67 66 68 67 65 63
87 87 89 92 93 89 85 83 82 80 66 61 65 60 60 66 59 57 60 65 65 64 66 66 63 59 65 63 62 60 59 59 61 63 65 66 67 73 68 68 67 70 65
89 90 92 94 94 94 90 85 86 84 82 78 74 74 78 70 66 60 55 64 64 65 66 65 62 60 62 65 62 60 72 87 70 75 67 68 68 73 67 66 68 68 71
91 89 92 93 93 93 93 92 91 91 90 86 83 82 81 82 73 64 60 68 65 61 61 61 59 59 60 61 62 71 90 92 77 90 66 65 65 65 67 71 74 70 71
Wind_Speed
8 7 6 5 4 4 4 3 4 3 4 4 5 4 3 4 4 4 4 4 4 3 3 4 5 3 3 3 3 3 3 3 4 2 3 2 3 4 5 5 6 5 6
8 6 6 6 6 4 1 2 2 4 3 4 4 5 5 6 4 5 5 6 6 5 5 5 5 4 5 4 3 5 4 4 3 3 2 2 2 2 3 5 5 4 5
9 8 6 6 7 6 3 2 2 3 5 3 3 4 5 5 5 4 4 4 5 6 6 5 5 5 4 3 4 4 3 2 3 2 2 1 2 2 2 2 4 4 4
8 9 9 7 6 5 2 3 1 2 5 5 5 5 4 3 3 2 3 4 5 6 6 6 6 6 5 4 4 4 3 2 2 2 2 2 2 2 2 2 4 3 5
8 10 10 7 6 5 4 3 3 3 4 3 3 4 3 3 1 2 3 3 4 6 4 4 3 1 5 3 1 2 3 3 3 3 2 1 1 2 2 3 3 5 3
4 7 6 5 5 4 3 5 5 5 5 4 3 2 3 2 2 4 4 3 3 3 5 3 1 4 4 5 4 1 4 3 3 2 2 2 1 2 2 4 3 2 3
6 5 6 7 7 5 5 6 7 7 5 4 3 3 2 3 6 5 7 2 1 0 1 2 3 3 6 4 6 7 9 9 5 1 0 1 2 1 3 3 1 1 1
6 7 8 8 7 6 6 7 6 5 5 3 3 3 2 2 9 5 5 2 5 4 3 5 5 5 4 5 2 4 5 5 4 3 4 5 5 5 3 3 3 2 4
6 6 6 7 8 8 9 8 5 5 5 4 3 4 3 3 9 5 4 5 2 6 3 5 4 5 4 6 1 3 4 5 8 11 11 8 8 13 12 1 2 1 1
4 2 4 5 4 6 5 4 1 6 6 5 5 4 6 4 11 10 5 4 5 4 3 4 9 4 1 2 3 3 3 2 4 5 6 9 10 10 15 9 4 2 2
5 6 5 5 7 7 5 3 5 6 7 6 6 4 5 5 6 10 9 3 2 2 2 1 2 8 4 1 3 2 2 5 7 7 6 6 8 9 8 9 10 6 4
7 10 9 9 5 4 4 3 5 7 6 5 5 3 3 4 6 7 8 7 2 1 1 1 2 8 6 5 4 7 10 7 5 6 6 6 7 7 6 8 9 10 10
9 10 8 8 5 6 5 3 5 5 5 4 3 2 2 2 1 5 7 7 7 2 0 1 0 7 9 11 11 10 8 5 5 6 7 6 5 5 5 4 6 8 9
8 8 6 4 4 5 5 4 3 3 3 4 4 3 2 2 1 1 2 3 5 4 3 4 8 9 10 8 7 7 6 5 6 6 5 5 4 5 7 5 4 2 4
7 6 6 5 5 5 5 4 3 4 3 2 2 1 3 3 1 3 3 2 3 3 3 3 3 3 5 6 6 6 6 5 6 5 5 5 5 5 6 5 6 5 7
5 4 3 3 3 3 3 2 7 6 4 7 4 1 1 4 6 5 4 3 2 2 2 3 3 4 5 4 5 5 5 6 5 6 5 5 6 5 5 5 5 6 6
5 4 3 3 2 2 2 2 2 0 2 2 4 4 3 1 5 3 2 3 3 3 2 5 5 5 5 5 5 4 5 4 5 5 5 4 5 4 4 4 5 5 5
3 4 2 2 1 2 2 2 1 1 1 2 1 1 1 2 2 0 2 1 1 1 2 6 6 6 6 6 5 6 6 4 5 5 5 4 4 4 4 4 5 5 5
2 1 2 1 2 2 2 2 2 2 3 3 1 2 3 2 1 2 2 2 3 3 4 6 5 6 6 6 6 6 6 5 5 4 4 3 3 3 4 4 5 5 4
3 5 4 3 3 3 3 3 3 4 4 5 5 4 2 2 3 2 3 3 4 4 6 7 6 6 7 6 6 6 6 6 5 4 4 4 3 3 4 4 3 3 4
1 2 4 3 3 3 3 3 3 3 5 5 6 4 7 5 5 5 4 4 5 6 7 7 7 6 6 6 7 6 6 6 5 5 4 4 4 4 3 3 3 4 4
3 3 3 3 3 3 4 3 4 4 5 6 7 4 10 7 5 6 6 6 7 7 7 7 7 7 8 8 8 7 7 6 6 5 5 4 4 3 3 3 3 3 3
4 5 4 4 4 4 4 5 4 5 6 7 6 5 5 7 7 7 7 7 7 7 7 7 7 7 6 6 7 7 7 7 6 6 6 5 4 3 3 3 2 2 3
4 5 5 5 4 4 4 5 5 7 7 6 5 5 6 7 8 9 8 7 7 7 7 8 8 10 9 7 6 6 5 5 6 6 6 5 4 4 3 3 2 0 2
4 4 5 5 5 5 5 6 5 6 6 6 7 6 7 6 7 8 8 7 8 9 9 9 8 11 13 13 11 11 8 10 8 6 5 5 5 5 3 3 3 2 3
4 4 4 4 4 5 5 6 6 6 6 7 8 7 6 5 5 5 5 7 8 9 10 9 10 13 13 11 13 12 9 12 9 7 6 5 4 4 3 4 4 4 4
Wind_Direction
187 178 173 185 201 192 223 223 207 202 206 192 197 205 213 248 231 206 218 230 212 225 220 213 228 234 240 223 201 189 195 191 215 276 255 290 298 336 335 341 358 15 357
174 177 182 162 167 172 184 359 278 238 208 232 207 188 189 228 236 228 216 206 212 225 232 221 230 213 231 238 222 217 214 204 210 262 285 302 278 307 308 319 356 5 353
163 161 165 171 155 151 128 26 355 289 262 222 218 221 223 223 215 214 226 237 231 229 231 221 225 203 218 220 228 231 239 226 197 215 286 298 294 305 306 323 340 332 351
170 167 172 169 160 152 77 19 350 270 266 269 223 221 221 212 205 214 224 232 244 247 240 239 237 225 210 197 219 247 254 240 241 244 267 282 280 324 320 330 329 334 335
190 176 175 173 152 154 149 246 256 229 235 236 245 224 176 190 174 250 247 249 246 252 245 232 239 319 69 96 214 210 217 210 200 242 265 271 308 326 349 334 294 332 328
182 176 162 145 153 205 177 191 214 225 236 216 200 158 209 231 338 277 247 248 265 258 250 209 106 16 347 62 81 255 252 242 226 195 194 207 291 295 312 298 297 9 340
178 160 148 158 169 191 206 190 212 197 196 203 179 145 166 291 321 277 242 213 250 32 294 157 89 29 19 349 81 81 67 58 38 339 45 49 289 14 276 276 274 359 79
167 169 169 177 173 178 196 197 196 179 169 152 155 119 123 9 338 302 186 129 111 64 59 105 120 84 16 318 188 94 74 57 23 30 70 61 39 339 266 302 340 11 126
191 180 186 185 177 186 197 189 179 148 131 142 134 99 93 22 1 25 68 85 61 77 71 87 109 106 32 338 102 112 79 61 70 71 79 71 46 31 25 15 26 32 129
125 196 205 198 152 131 139 142 234 123 116 121 103 85 69 49 14 16 70 104 106 115 98 79 63 44 13 354 130 134 122 77 107 75 45 42 36 40 38 41 5 76 45
107 84 58 53 117 134 141 160 141 112 119 121 111 86 78 53 39 36 36 79 110 141 115 74 27 359 342 11 75 115 103 121 94 89 72 55 45 42 47 46 42 53 92
81 90 81 65 333 88 114 91 128 137 132 127 120 109 78 61 46 47 54 46 56 109 61 47 15 10 60 72 62 88 94 91 95 88 72 58 54 50 43 59 62 70 72
72 67 76 72 40 31 58 86 108 124 133 129 138 140 143 117 61 49 44 43 46 91 80 305 160 87 86 76 72 76 76 84 96 86 86 68 55 43 52 82 75 69 66
84 87 93 84 61 46 24 38 51 91 126 143 147 172 175 184 165 42 44 28 26 22 31 123 112 92 88 96 79 67 79 79 99 98 92 93 69 57 53 28 41 27 53
78 81 82 83 79 76 60 12 51 38 358 119 124 192 170 195 184 102 61 46 37 33 324 102 101 91 93 93 93 90 90 91 93 93 101 95 80 75 62 47 54 61 65
90 78 78 84 79 91 108 97 59 77 58 53 53 34 107 71 112 101 86 82 50 24 164 139 140 132 120 121 112 95 72 81 91 98 88 88 89 77 70 58 57 57 61
88 100 100 100 124 125 97 87 43 61 111 113 63 61 46 165 153 135 93 21 82 133 175 170 159 151 141 135 129 110 104 94 97 91 97 94 91 87 86 76 67 63 66
48 29 22 7 201 182 185 187 188 226 295 298 193 212 53 93 141 181 70 25 152 179 203 171 160 152 151 140 129 122 117 106 95 95 93 91 91 91 84 76 69 61 58
202 229 222 249 249 236 241 272 255 248 255 258 301 255 239 232 239 258 188 223 231 205 178 155 146 146 144 143 138 132 129 124 120 113 104 101 98 101 97 90 88 67 64
221 227 215 214 217 217 225 232 239 241 238 234 245 245 176 157 209 223 222 218 212 182 163 149 153 152 153 155 150 143 136 140 136 138 138 132 120 118 113 99 81 81 62
300 228 229 222 235 238 237 236 243 246 250 244 246 219 191 195 212 209 216 208 188 170 167 160 160 162 164 158 154 153 153 148 152 150 155 152 154 138 119 97 83 68 56
349 329 315 275 272 256 256 257 260 255 255 259 266 247 194 209 207 202 201 190 182 178 172 164 171 179 174 171 168 166 166 161 162 164 165 163 156 141 125 110 93 88 81
347 334 317 296 283 278 277 272 268 258 258 253 252 250 212 225 209 209 199 194 187 184 178 177 174 179 175 174 177 174 172 178 177 173 171 169 164 156 148 130 117 76 29
345 332 320 302 294 282 279 280 273 258 259 257 252 246 232 223 219 208 207 190 189 189 184 184 184 180 178 178 182 188 183 168 168 177 173 170 168 170 177 185 185 227 327
335 330 327 321 315 308 303 297 292 290 283 269 262 249 250 236 227 220 204 199 191 181 187 188 185 187 187 182 185 188 174 159 174 166 175 181 187 190 202 216 232 265 293
334 329 324 326 322 318 311 307 306 306 296 287 274 257 251 235 231 216 221 200 192 189 183 190 193 190 187 190 192 184 164 177 177 182 180 191 198 208 219 238 247 260 275